User: anonymous   Login
Location: ?
(35.4064°N, 139.3593°E)
Time: 13:23:26
(UTC+00:00)
Language:

H-2A R/B - Orbit

View from above orbital plane
View from above orbital plane
View from above satellite
View from above satellite

Ground track
Ground track

The orbit data is extracted from the following two-line orbital elements,

1 27601U 02056E   24171.94919146  .00000263  00000-0  10859-3 0  9994
2 27601  98.2298 148.8817 0070107 232.6638 188.8653 14.32837750124183
Epoch (UTC): 19 June 2024 22:46:50
Eccentricity: 0.0070107
inclination: 98.2298°
perigee height: 732 km
apogee height: 832 km
right ascension of ascending node: 148.8817°
argument of perigee: 232.6638°
revolutions per day: 14.32837750
mean anomaly at epoch: 188.8653°
orbit number at epoch: 12418

The dashed part of the orbit path shows where the satellite is in the earth's shadow,  

DLR